STARLINK-1502, 45764

Orbit data source: Space-Track

STARLINK-1502, 45764 is a payload satellite owned by SpaceX/Seattle (US) in LEO that was launched on Sat, 13 Jun 2020 UTC via an FALCON 9 launch vehicle from the Air Force Eastern Test Range (AFETR). Payload-class satellites include a variety of spacecraft equipped with specific instruments for various scientific and technological missions. These include communications satellites like Starlink; space stations such as the ISS; scientific satellites like the Hubble; Earth observation satellites from companies like Planet Labs, Umbra, and HawkEye 360; GPS; miniature CubeSats for education and research; and military/defense satellites.

Loading next visibility...
Identifier
45764, 2020-038AL
Orbit
LEO
Country
Flag of USUS
Related business
Manufacturer
SpaceX/Seattle
Mission
Operational Commercial Communications
Bus & Motor
STARLINK, Unknown motor
Mass
260 kg wet, ~248 kg dry
Launch date (UTC)
2020-06-13 (6 years ago)
Launch vehicle
FALCON 9
Launch site
Air Force Eastern Test Range (AFETR)
Object type
Payload
Rocket body
Debris
Shape & HBR
Box + 1 Pan, 10.1 m
Radar Cross Section
13.562 m², Large (>1 m²)

Expand to show TLE details & history
Last TLE update: 14 hours ago

TLE from 14 hours ago
0 STARLINK-1502
1 45764U 20038AL  25352.34613530  .00001046  00000-0  89087-4 0  9998
2 45764  53.0534 221.7837 0001485  91.1117 269.0042 15.06397877304223
Epoch: 2025-12-18T08:18Z
TLE epoch observation values (Epoch: 2025-12-18T08:18:26.089Z)
Latitude
-0.00005°
Longitude
9.97199°
Altitude
548.115 km
Speed
7.589 km/s
True Right ascension
14h 47m 08s
True Declination
0° 00' 00"
Sunlit
Object was in daylight at epoch
Visualization orbit readout
Latitude
Unknown
Longitude
Unknown
Altitude
Unknown
Speed
Unknown
Apparent Right ascension
Unknown
Apparent Declination
Unknown
Sunlit
N/A
Visualization observer readout
Local Sidereal Time
20:55:07
Azimuth
Unknown
Elevation
Unknown
Doppler factor
Unknown
Orbital elements
Apogee altitude
548.517 km
Perigee altitude
546.461 km
Semi-major axis
6,925.626 km
Eccentricity
0.00015
Inclination
53.0534°
RAAN
221.7837°
Arg. of periapsis
91.1117°
True anomaly
268.98719°
Mean anomaly
269.0042°
Eccentric anomaly
268.99569°
Mean motion
3.76578 °/min
Orbital period
95.6 mins
BSTAR
0.000089087
Loading maneuver chart data...
Computing Atmospheric mass density...

Documentation

Showing up to 5 results
|